QPF
0.00 0.00 0.00 0.00 0.00 0.00 0.00 0.00 0.00 0.00 0.00 0.00 0.00 0.00 0.00 0.00 0.01 0.07 0.01 0.00 0.00 0.00 0.00 0.00 0.00 0.00 0.00 0.00 0.01 0.02 0.03 0.05 0.05 0.05 0.04 0.04 0.03 0.03 0.02 0.02 0.02 0.03 0.03 0.03 0.02 0.01 0.00 0.00 0.00
0.00 0.00 0.00 0.00 0.00 0.00 0.00 0.00 0.00 0.00 0.00 0.00 0.00 0.00 0.00 0.00 0.00 0.00 0.00 0.00 0.00 0.00 0.00 0.00 0.00 0.00 0.00 0.00 0.01 0.02 0.04 0.05 0.05 0.04 0.04 0.03 0.03 0.02 0.02 0.02 0.02 0.03 0.02 0.02 0.01 0.00 0.00 0.00 0.00
0.00 0.00 0.00 0.00 0.00 0.00 0.00 0.00 0.00 0.00 0.00 0.00 0.00 0.00 0.00 0.00 0.00 0.00 0.00 0.00 0.00 0.00 0.00 0.00 0.00 0.00 0.00 0.00 0.00 0.02 0.04 0.05 0.04 0.04 0.04 0.03 0.03 0.02 0.02 0.02 0.02 0.02 0.01 0.01 0.00 0.00 0.00 0.00 0.00
0.00 0.00 0.00 0.00 0.00 0.00 0.00 0.00 0.00 0.00 0.00 0.00 0.00 0.00 0.00 0.00 0.00 0.00 0.00 0.00 0.00 0.00 0.00 0.00 0.00 0.00 0.00 0.00 0.00 0.01 0.02 0.04 0.05 0.05 0.04 0.03 0.02 0.02 0.01 0.01 0.01 0.01 0.01 0.00 0.00 0.00 0.00 0.00 0.00
0.00 0.00 0.00 0.00 0.00 0.00 0.00 0.00 0.00 0.00 0.00 0.00 0.00 0.00 0.00 0.00 0.00 0.00 0.00 0.00 0.00 0.00 0.00 0.00 0.00 0.00 0.00 0.00 0.00 0.01 0.02 0.03 0.05 0.04 0.03 0.02 0.01 0.01 0.01 0.01 0.01 0.01 0.01 0.00 0.00 0.00 0.00 0.00 0.00
0.00 0.00 0.00 0.00 0.00 0.00 0.00 0.00 0.00 0.00 0.00 0.00 0.00 0.00 0.00 0.00 0.00 0.00 0.00 0.00 0.00 0.00 0.00 0.00 0.00 0.00 0.00 0.00 0.01 0.02 0.03 0.03 0.04 0.03 0.02 0.01 0.01 0.00 0.00 0.00 0.01 0.01 0.01 0.00 0.00 0.00 0.00 0.00 0.00
0.00 0.00 0.00 0.00 0.00 0.00 0.00 0.00 0.00 0.00 0.00 0.00 0.00 0.00 0.00 0.00 0.00 0.00 0.00 0.00 0.00 0.00 0.00 0.00 0.00 0.00 0.00 0.00 0.01 0.02 0.02 0.03 0.03 0.02 0.02 0.01 0.00 0.00 0.00 0.00 0.00 0.00 0.01 0.00 0.00 0.00 0.00 0.00 0.00
0.00 0.00 0.00 0.00 0.00 0.00 0.00 0.00 0.00 0.00 0.00 0.00 0.00 0.00 0.01 0.01 0.00 0.00 0.00 0.00 0.00 0.00 0.00 0.00 0.00 0.00 0.00 0.00 0.00 0.01 0.01 0.01 0.01 0.01 0.01 0.00 0.00 0.00 0.00 0.00 0.01 0.00 0.00 0.00 0.00 0.00 0.00 0.00 0.00
0.00 0.00 0.00 0.00 0.00 0.00 0.00 0.00 0.00 0.00 0.00 0.01 0.01 0.01 0.02 0.01 0.00 0.00 0.00 0.00 0.00 0.00 0.00 0.00 0.00 0.00 0.00 0.00 0.00 0.00 0.00 0.00 0.00 0.00 0.00 0.00 0.00 0.01 0.01 0.01 0.01 0.00 0.00 0.00 0.00 0.00 0.00 0.00 0.00
0.00 0.00 0.00 0.00 0.00 0.00 0.00 0.00 0.00 0.00 0.01 0.02 0.03 0.01 0.02 0.01 0.00 0.00 0.00 0.00 0.00 0.00 0.00 0.00 0.00 0.00 0.00 0.00 0.00 0.00 0.00 0.00 0.00 0.01 0.01 0.00 0.05 0.10 0.09 0.10 0.03 0.01 0.00 0.00 0.00 0.00 0.00 0.00 0.00
0.00 0.00 0.00 0.00 0.00 0.00 0.00 0.00 0.00 0.00 0.00 0.01 0.02 0.01 0.00 0.00 0.00 0.00 0.00 0.00 0.00 0.00 0.00 0.00 0.00 0.00 0.00 0.00 0.00 0.00 0.00 0.02 0.01 0.03 0.05 0.05 0.11 0.11 0.16 0.19 0.08 0.03 0.02 0.03 0.03 0.01 0.00 0.00 0.00
0.00 0.00 0.00 0.00 0.00 0.00 0.00 0.00 0.00 0.00 0.00 0.00 0.00 0.01 0.00 0.00 0.00 0.00 0.00 0.00 0.00 0.00 0.00 0.00 0.00 0.00 0.00 0.00 0.00 0.00 0.00 0.02 0.01 0.05 0.06 0.11 0.14 0.16 0.19 0.19 0.14 0.11 0.09 0.08 0.05 0.02 0.01 0.00 0.00
0.00 0.00 0.00 0.00 0.00 0.00 0.00 0.00 0.00 0.00 0.00 0.00 0.01 0.01 0.01 0.00 0.00 0.00 0.00 0.00 0.00 0.00 0.00 0.00 0.00 0.00 0.00 0.00 0.00 0.00 0.00 0.02 0.03 0.06 0.07 0.09 0.11 0.14 0.18 0.17 0.16 0.11 0.09 0.07 0.03 0.02 0.01 0.00 0.01
0.00 0.00 0.00 0.00 0.00 0.00 0.00 0.00 0.00 0.00 0.00 0.00 0.00 0.02 0.01 0.00 0.00 0.00 0.02 0.02 0.00 0.00 0.00 0.00 0.00 0.00 0.00 0.00 0.00 0.00 0.01 0.02 0.03 0.04 0.05 0.06 0.10 0.16 0.19 0.17 0.15 0.12 0.10 0.13 0.06 0.04 0.03 0.01 0.01
0.00 0.00 0.00 0.00 0.00 0.00 0.00 0.00 0.00 0.00 0.00 0.00 0.00 0.01 0.01 0.00 0.01 0.01 0.04 0.04 0.01 0.00 0.00 0.00 0.00 0.00 0.00 0.00 0.00 0.01 0.01 0.02 0.03 0.05 0.05 0.05 0.08 0.15 0.17 0.16 0.15 0.13 0.11 0.09 0.05 0.03 0.04 0.04 0.01
0.00 0.00 0.00 0.00 0.00 0.00 0.00 0.00 0.00 0.00 0.00 0.00 0.00 0.00 0.00 0.00 0.01 0.03 0.02 0.04 0.02 0.00 0.00 0.00 0.00 0.00 0.00 0.00 0.00 0.01 0.02 0.02 0.03 0.05 0.06 0.08 0.09 0.12 0.15 0.15 0.14 0.13 0.12 0.09 0.05 0.03 0.02 0.03 0.01
0.00 0.00 0.00 0.00 0.00 0.00 0.00 0.00 0.00 0.00 0.00 0.00 0.00 0.00 0.00 0.00 0.00 0.01 0.01 0.02 0.01 0.00 0.00 0.00 0.00 0.00 0.00 0.01 0.01 0.01 0.02 0.03 0.05 0.07 0.09 0.13 0.14 0.14 0.16 0.15 0.16 0.15 0.14 0.11 0.06 0.03 0.03 0.03 0.02
0.00 0.00 0.00 0.00 0.00 0.00 0.00 0.00 0.00 0.00 0.00 0.00 0.00 0.00 0.01 0.01 0.00 0.00 0.00 0.01 0.01 0.00 0.00 0.00 0.01 0.01 0.01 0.01 0.01 0.02 0.02 0.04 0.07 0.10 0.10 0.12 0.14 0.16 0.19 0.20 0.19 0.17 0.16 0.13 0.08 0.05 0.04 0.03 0.02
0.00 0.00 0.00 0.00 0.00 0.00 0.00 0.00 0.00 0.00 0.00 0.00 0.00 0.00 0.00 0.01 0.00 0.00 0.00 0.01 0.00 0.00 0.01 0.02 0.02 0.02 0.02 0.01 0.02 0.03 0.05 0.06 0.07 0.08 0.09 0.13 0.15 0.16 0.19 0.21 0.21 0.19 0.17 0.15 0.12 0.09 0.06 0.04 0.03
0.00 0.00 0.00 0.00 0.00 0.00 0.00 0.00 0.00 0.00 0.00 0.00 0.00 0.00 0.00 0.01 0.00 0.00 0.01 0.05 0.03 0.00 0.01 0.02 0.04 0.04 0.05 0.06 0.07 0.10 0.11 0.13 0.12 0.14 0.18 0.18 0.16 0.18 0.22 0.26 0.26 0.25 0.24 0.21 0.16 0.11 0.08 0.05 0.04
0.00 0.00 0.00 0.00 0.00 0.00 0.00 0.00 0.00 0.00 0.00 0.00 0.00 0.00 0.00 0.00 0.00 0.00 0.00 0.02 0.02 0.01 0.02 0.03 0.06 0.08 0.09 0.10 0.10 0.13 0.16 0.19 0.21 0.21 0.20 0.19 0.18 0.17 0.19 0.25 0.29 0.28 0.26 0.20 0.13 0.10 0.07 0.05 0.04
0.00 0.00 0.00 0.00 0.00 0.00 0.00 0.00 0.00 0.00 0.00 0.00 0.00 0.00 0.00 0.00 0.00 0.00 0.00 0.00 0.00 0.01 0.02 0.05 0.08 0.11 0.11 0.11 0.10 0.12 0.17 0.19 0.20 0.19 0.16 0.14 0.13 0.12 0.14 0.22 0.27 0.26 0.21 0.14 0.10 0.08 0.06 0.04 0.03
0.00 0.00 0.00 0.00 0.00 0.00 0.00 0.00 0.00 0.00 0.00 0.00 0.00 0.00 0.00 0.00 0.00 0.00 0.00 0.00 0.00 0.01 0.01 0.05 0.09 0.10 0.13 0.13 0.12 0.15 0.19 0.19 0.16 0.14 0.13 0.12 0.12 0.12 0.13 0.17 0.16 0.14 0.10 0.07 0.05 0.03 0.02 0.01 0.01
0.00 0.00 0.00 0.00 0.00 0.00 0.00 0.00 0.00 0.00 0.00 0.00 0.00 0.00 0.00 0.00 0.00 0.00 0.00 0.00 0.00 0.01 0.03 0.06 0.08 0.11 0.16 0.17 0.19 0.21 0.19 0.17 0.14 0.12 0.13 0.14 0.11 0.09 0.08 0.09 0.07 0.05 0.03 0.02 0.01 0.01 0.00 0.00 0.00
0.00 0.00 0.00 0.00 0.00 0.00 0.00 0.00 0.00 0.00 0.00 0.00 0.00 0.00 0.00 0.00 0.00 0.00 0.00 0.01 0.01 0.02 0.03 0.05 0.07 0.10 0.13 0.17 0.21 0.20 0.18 0.16 0.14 0.11 0.08 0.06 0.04 0.03 0.03 0.04 0.03 0.02 0.01 0.01 0.00 0.00 0.00 0.00 0.00
0.00 0.00 0.00 0.00 0.00 0.00 0.00 0.00 0.00 0.00 0.00 0.00 0.00 0.00 0.00 0.01 0.01 0.01 0.01 0.01 0.02 0.02 0.03 0.04 0.07 0.09 0.12 0.15 0.18 0.17 0.16 0.14 0.10 0.06 0.03 0.02 0.01 0.01 0.02 0.02 0.01 0.01 0.00 0.00 0.00 0.00 0.00 0.00 0.00
0.00 0.00 0.00 0.00 0.00 0.00 0.00 0.00 0.01 0.00 0.00 0.00 0.00 0.00 0.01 0.01 0.01 0.01 0.02 0.03 0.03 0.03 0.04 0.05 0.05 0.07 0.09 0.10 0.10 0.11 0.11 0.08 0.05 0.03 0.01 0.01 0.01 0.01 0.01 0.01 0.01 0.00 0.00 0.00 0.00 0.00 0.00 0.00 0.00
0.00 0.00 0.00 0.00 0.00 0.00 0.00 0.00 0.01 0.01 0.01 0.00 0.01 0.01 0.01 0.01 0.01 0.02 0.02 0.03 0.03 0.03 0.03 0.03 0.03 0.04 0.05 0.05 0.06 0.06 0.05 0.04 0.02 0.01 0.01 0.01 0.01 0.01 0.01 0.01 0.00 0.00 0.00 0.00 0.00 0.00 0.00 0.00 0.00
0.00 0.00 0.00 0.00 0.00 0.00 0.00 0.03 0.03 0.04 0.04 0.02 0.01 0.01 0.01 0.01 0.01 0.02 0.03 0.03 0.03 0.03 0.03 0.03 0.03 0.03 0.03 0.03 0.03 0.03 0.02 0.01 0.01 0.00 0.00 0.01 0.01 0.01 0.00 0.00 0.00 0.00 0.00 0.00 0.00 0.00 0.00 0.00 0.00
0.00 0.00 0.00 0.00 0.00 0.00 0.01 0.07 0.05 0.07 0.05 0.03 0.01 0.01 0.01 0.01 0.02 0.02 0.03 0.03 0.03 0.03 0.02 0.02 0.01 0.01 0.01 0.02 0.01 0.01 0.01 0.00 0.00 0.00 0.01 0.00 0.00 0.00 0.00 0.00 0.00 0.00 0.00 0.00 0.00 0.00 0.00 0.00 0.00
MSLP
1009.33 1009.68 1010.05 1010.30 1010.35 1010.15 1009.70 1009.10 1008.45 1007.89 1007.51 1007.36 1007.42 1007.64 1007.92 1008.19 1008.38 1008.50 1008.57 1008.65 1008.83 1009.15 1009.64 1010.28 1011.00 1011.72 1012.38 1012.91 1013.31 1013.61 1013.85 1014.11 1014.43 1014.83 1015.31 1015.82 1016.32 1016.73 1017.04 1017.23 1017.32 1017.36 1017.38 1017.42 1017.51 1017.62 1017.74 1017.83 1017.87
1009.76 1010.21 1010.58 1010.75 1010.62 1010.19 1009.50 1008.67 1007.84 1007.15 1006.71 1006.55 1006.65 1006.92 1007.26 1007.58 1007.81 1007.96 1008.07 1008.20 1008.43 1008.84 1009.42 1010.16 1010.98 1011.79 1012.50 1013.07 1013.49 1013.79 1014.03 1014.28 1014.59 1014.99 1015.47 1015.97 1016.46 1016.86 1017.16 1017.33 1017.42 1017.46 1017.51 1017.59 1017.71 1017.85 1017.99 1018.08 1018.09
1010.28 1010.80 1011.14 1011.19 1010.89 1010.24 1009.32 1008.30 1007.33 1006.57 1006.10 1005.96 1006.10 1006.42 1006.81 1007.16 1007.41 1007.56 1007.68 1007.82 1008.10 1008.57 1009.23 1010.06 1010.98 1011.88 1012.67 1013.30 1013.76 1014.07 1014.31 1014.54 1014.82 1015.19 1015.63 1016.09 1016.54 1016.91 1017.18 1017.35 1017.45 1017.52 1017.62 1017.75 1017.93 1018.12 1018.28 1018.37 1018.35
1010.80 1011.33 1011.62 1011.54 1011.06 1010.22 1009.14 1007.99 1006.93 1006.15 1005.70 1005.62 1005.81 1006.19 1006.61 1006.97 1007.22 1007.36 1007.46 1007.61 1007.91 1008.42 1009.15 1010.06 1011.06 1012.04 1012.90 1013.59 1014.08 1014.42 1014.65 1014.87 1015.12 1015.44 1015.81 1016.22 1016.61 1016.94 1017.19 1017.36 1017.48 1017.60 1017.75 1017.95 1018.18 1018.42 1018.60 1018.68 1018.63
1011.22 1011.72 1011.91 1011.69 1011.06 1010.08 1008.89 1007.67 1006.61 1005.85 1005.47 1005.46 1005.73 1006.16 1006.62 1006.99 1007.23 1007.36 1007.44 1007.59 1007.89 1008.42 1009.19 1010.15 1011.21 1012.25 1013.16 1013.90 1014.42 1014.78 1015.02 1015.22 1015.44 1015.71 1016.04 1016.39 1016.73 1017.02 1017.25 1017.42 1017.57 1017.73 1017.94 1018.18 1018.46 1018.72 1018.90 1018.97 1018.89
1011.46 1011.88 1011.94 1011.59 1010.83 1009.76 1008.52 1007.31 1006.29 1005.62 1005.33 1005.41 1005.76 1006.24 1006.73 1007.11 1007.35 1007.47 1007.55 1007.69 1008.01 1008.55 1009.34 1010.31 1011.39 1012.44 1013.38 1014.14 1014.68 1015.06 1015.31 1015.51 1015.72 1015.97 1016.27 1016.59 1016.89 1017.16 1017.38 1017.56 1017.73 1017.91 1018.14 1018.40 1018.69 1018.94 1019.12 1019.16 1019.06
1011.47 1011.75 1011.67 1011.20 1010.36 1009.25 1008.03 1006.88 1005.96 1005.39 1005.21 1005.37 1005.78 1006.31 1006.81 1007.21 1007.46 1007.60 1007.69 1007.86 1008.18 1008.73 1009.51 1010.47 1011.52 1012.55 1013.47 1014.22 1014.77 1015.16 1015.43 1015.65 1015.88 1016.15 1016.45 1016.77 1017.08 1017.34 1017.56 1017.74 1017.91 1018.09 1018.31 1018.56 1018.81 1019.03 1019.16 1019.18 1019.05
1011.24 1011.37 1011.15 1010.58 1009.69 1008.60 1007.45 1006.40 1005.60 1005.14 1005.05 1005.28 1005.72 1006.26 1006.78 1007.20 1007.47 1007.64 1007.78 1007.98 1008.33 1008.88 1009.64 1010.55 1011.54 1012.51 1013.37 1014.08 1014.62 1015.02 1015.32 1015.60 1015.88 1016.20 1016.54 1016.90 1017.23 1017.51 1017.74 1017.91 1018.07 1018.22 1018.39 1018.59 1018.78 1018.93 1019.01 1018.99 1018.86
1010.81 1010.78 1010.45 1009.82 1008.94 1007.91 1006.87 1005.95 1005.26 1004.90 1004.86 1005.10 1005.54 1006.07 1006.58 1007.00 1007.31 1007.54 1007.74 1008.00 1008.39 1008.95 1009.66 1010.51 1011.40 1012.28 1013.05 1013.70 1014.22 1014.63 1014.98 1015.32 1015.68 1016.07 1016.49 1016.91 1017.29 1017.61 1017.85 1018.02 1018.15 1018.26 1018.37 1018.48 1018.59 1018.67 1018.69 1018.63 1018.51
1010.24 1010.09 1009.68 1009.03 1008.20 1007.28 1006.36 1005.57 1004.99 1004.69 1004.66 1004.88 1005.26 1005.73 1006.21 1006.63 1006.98 1007.27 1007.55 1007.89 1008.32 1008.88 1009.57 1010.33 1011.12 1011.89 1012.57 1013.15 1013.64 1014.06 1014.45 1014.86 1015.31 1015.79 1016.30 1016.79 1017.23 1017.59 1017.86 1018.03 1018.14 1018.20 1018.25 1018.28 1018.30 1018.31 1018.27 1018.19 1018.08
1009.64 1009.39 1008.94 1008.33 1007.58 1006.79 1006.01 1005.34 1004.84 1004.56 1004.50 1004.64 1004.93 1005.30 1005.72 1006.12 1006.49 1006.85 1007.23 1007.64 1008.13 1008.71 1009.36 1010.05 1010.75 1011.40 1012.00 1012.52 1012.98 1013.41 1013.84 1014.32 1014.84 1015.41 1016.00 1016.56 1017.05 1017.46 1017.75 1017.94 1018.04 1018.07 1018.07 1018.04 1018.00 1017.95 1017.88 1017.80 1017.71
1009.07 1008.77 1008.33 1007.78 1007.14 1006.48 1005.84 1005.27 1004.82 1004.53 1004.39 1004.41 1004.57 1004.83 1005.15 1005.52 1005.91 1006.33 1006.79 1007.28 1007.83 1008.43 1009.06 1009.70 1010.33 1010.91 1011.44 1011.91 1012.36 1012.81 1013.28 1013.81 1014.39 1015.01 1015.64 1016.25 1016.79 1017.23 1017.55 1017.76 1017.87 1017.91 1017.90 1017.85 1017.79 1017.72 1017.64 1017.57 1017.52
1008.61 1008.29 1007.88 1007.40 1006.89 1006.36 1005.84 1005.34 1004.91 1004.57 1004.33 1004.21 1004.22 1004.34 1004.56 1004.88 1005.28 1005.75 1006.27 1006.83 1007.44 1008.07 1008.70 1009.32 1009.91 1010.46 1010.96 1011.44 1011.90 1012.37 1012.87 1013.43 1014.03 1014.67 1015.31 1015.93 1016.48 1016.93 1017.29 1017.54 1017.69 1017.77 1017.79 1017.77 1017.74 1017.69 1017.64 1017.60 1017.58
1008.30 1007.98 1007.60 1007.20 1006.79 1006.37 1005.93 1005.49 1005.04 1004.63 1004.28 1004.01 1003.87 1003.85 1003.98 1004.24 1004.63 1005.12 1005.69 1006.31 1006.97 1007.63 1008.29 1008.92 1009.53 1010.10 1010.63 1011.14 1011.65 1012.16 1012.69 1013.26 1013.85 1014.46 1015.06 1015.64 1016.17 1016.63 1017.01 1017.30 1017.52 1017.68 1017.78 1017.84 1017.88 1017.89 1017.89 1017.90 1017.92
1008.12 1007.79 1007.45 1007.11 1006.78 1006.43 1006.05 1005.62 1005.15 1004.66 1004.19 1003.79 1003.51 1003.38 1003.42 1003.63 1003.99 1004.49 1005.08 1005.74 1006.42 1007.12 1007.82 1008.50 1009.16 1009.80 1010.41 1011.01 1011.60 1012.17 1012.73 1013.29 1013.84 1014.39 1014.92 1015.43 1015.91 1016.34 1016.74 1017.08 1017.38 1017.64 1017.85 1018.03 1018.16 1018.27 1018.34 1018.40 1018.47
1008.04 1007.71 1007.38 1007.09 1006.80 1006.49 1006.13 1005.69 1005.17 1004.60 1004.03 1003.53 1003.14 1002.92 1002.90 1003.06 1003.41 1003.89 1004.48 1005.14 1005.84 1006.56 1007.29 1008.03 1008.78 1009.52 1010.26 1010.99 1011.68 1012.33 1012.93 1013.48 1013.99 1014.45 1014.88 1015.30 1015.71 1016.11 1016.51 1016.90 1017.29 1017.65 1017.98 1018.28 1018.53 1018.73 1018.89 1019.02 1019.11
1008.01 1007.67 1007.36 1007.09 1006.83 1006.53 1006.16 1005.68 1005.11 1004.47 1003.83 1003.25 1002.80 1002.53 1002.47 1002.60 1002.93 1003.39 1003.96 1004.59 1005.27 1005.99 1006.74 1007.53 1008.37 1009.24 1010.12 1010.98 1011.80 1012.55 1013.21 1013.76 1014.21 1014.60 1014.93 1015.25 1015.58 1015.94 1016.33 1016.77 1017.23 1017.69 1018.13 1018.54 1018.90 1019.20 1019.43 1019.61 1019.74
1007.98 1007.65 1007.37 1007.12 1006.87 1006.57 1006.17 1005.65 1005.02 1004.32 1003.63 1003.02 1002.55 1002.27 1002.20 1002.33 1002.64 1003.07 1003.59 1004.17 1004.80 1005.48 1006.22 1007.04 1007.95 1008.92 1009.93 1010.94 1011.89 1012.74 1013.46 1014.03 1014.45 1014.77 1015.03 1015.27 1015.53 1015.85 1016.24 1016.70 1017.21 1017.74 1018.27 1018.76 1019.20 1019.57 1019.86 1020.09 1020.25
1007.92 1007.63 1007.40 1007.19 1006.96 1006.65 1006.22 1005.66 1004.98 1004.25 1003.54 1002.92 1002.47 1002.23 1002.19 1002.34 1002.64 1003.04 1003.51 1004.00 1004.54 1005.14 1005.83 1006.63 1007.56 1008.60 1009.71 1010.83 1011.90 1012.85 1013.63 1014.23 1014.65 1014.95 1015.16 1015.34 1015.56 1015.86 1016.24 1016.71 1017.25 1017.82 1018.39 1018.93 1019.41 1019.82 1020.16 1020.41 1020.60
1007.80 1007.61 1007.46 1007.32 1007.12 1006.82 1006.38 1005.78 1005.08 1004.33 1003.63 1003.05 1002.66 1002.48 1002.51 1002.71 1003.02 1003.40 1003.79 1004.19 1004.61 1005.09 1005.68 1006.40 1007.30 1008.34 1009.49 1010.68 1011.82 1012.85 1013.70 1014.35 1014.80 1015.10 1015.30 1015.48 1015.69 1015.98 1016.36 1016.84 1017.38 1017.95 1018.53 1019.07 1019.56 1019.97 1020.32 1020.60 1020.81
1007.64 1007.59 1007.57 1007.53 1007.40 1007.13 1006.68 1006.07 1005.36 1004.62 1003.95 1003.44 1003.14 1003.06 1003.19 1003.47 1003.82 1004.18 1004.51 1004.81 1005.09 1005.42 1005.86 1006.45 1007.25 1008.23 1009.35 1010.54 1011.71 1012.78 1013.69 1014.39 1014.89 1015.24 1015.48 1015.69 1015.92 1016.23 1016.61 1017.08 1017.61 1018.16 1018.70 1019.21 1019.66 1020.06 1020.40 1020.68 1020.91
1007.46 1007.58 1007.72 1007.81 1007.77 1007.54 1007.11 1006.51 1005.80 1005.10 1004.49 1004.08 1003.90 1003.95 1004.20 1004.58 1004.99 1005.36 1005.65 1005.84 1005.99 1006.15 1006.41 1006.84 1007.48 1008.33 1009.36 1010.50 1011.65 1012.72 1013.66 1014.41 1014.97 1015.38 1015.69 1015.96 1016.25 1016.58 1016.99 1017.45 1017.95 1018.46 1018.95 1019.40 1019.79 1020.14 1020.45 1020.73 1020.97
1007.27 1007.58 1007.90 1008.12 1008.17 1008.00 1007.60 1007.02 1006.35 1005.70 1005.18 1004.88 1004.84 1005.04 1005.44 1005.93 1006.42 1006.82 1007.09 1007.21 1007.23 1007.24 1007.31 1007.55 1008.00 1008.69 1009.58 1010.61 1011.70 1012.74 1013.68 1014.46 1015.08 1015.56 1015.95 1016.29 1016.64 1017.02 1017.44 1017.90 1018.37 1018.83 1019.26 1019.64 1019.97 1020.27 1020.54 1020.80 1021.05
1007.11 1007.59 1008.05 1008.38 1008.52 1008.40 1008.04 1007.50 1006.88 1006.30 1005.89 1005.72 1005.83 1006.20 1006.74 1007.37 1007.96 1008.41 1008.67 1008.75 1008.68 1008.55 1008.46 1008.52 1008.79 1009.30 1010.04 1010.93 1011.92 1012.90 1013.81 1014.60 1015.25 1015.79 1016.24 1016.65 1017.06 1017.49 1017.93 1018.39 1018.84 1019.25 1019.61 1019.93 1020.20 1020.44 1020.68 1020.92 1021.17
1007.00 1007.59 1008.15 1008.56 1008.74 1008.66 1008.34 1007.85 1007.30 1006.82 1006.52 1006.49 1006.76 1007.28 1007.98 1008.73 1009.42 1009.94 1010.23 1010.28 1010.16 1009.94 1009.74 1009.65 1009.77 1010.12 1010.70 1011.45 1012.32 1013.21 1014.07 1014.84 1015.50 1016.07 1016.57 1017.03 1017.48 1017.94 1018.40 1018.86 1019.29 1019.66 1019.98 1020.24 1020.46 1020.66 1020.87 1021.09 1021.33
1006.96 1007.59 1008.17 1008.60 1008.79 1008.73 1008.45 1008.01 1007.54 1007.17 1007.01 1007.12 1007.54 1008.21 1009.04 1009.90 1010.68 1011.26 1011.59 1011.66 1011.53 1011.27 1011.00 1010.83 1010.84 1011.07 1011.52 1012.16 1012.91 1013.71 1014.49 1015.21 1015.85 1016.41 1016.92 1017.40 1017.87 1018.35 1018.82 1019.27 1019.69 1020.04 1020.34 1020.57 1020.76 1020.92 1021.10 1021.30 1021.53
1007.00 1007.59 1008.13 1008.51 1008.68 1008.62 1008.37 1008.00 1007.63 1007.38 1007.36 1007.62 1008.16 1008.95 1009.89 1010.84 1011.68 1012.32 1012.69 1012.79 1012.67 1012.42 1012.15 1011.95 1011.91 1012.08 1012.45 1013.00 1013.65 1014.36 1015.06 1015.71 1016.30 1016.82 1017.31 1017.77 1018.24 1018.71 1019.18 1019.63 1020.04 1020.39 1020.67 1020.89 1021.07 1021.21 1021.37 1021.54 1021.75
1007.13 1007.63 1008.06 1008.36 1008.48 1008.41 1008.19 1007.90 1007.64 1007.53 1007.65 1008.04 1008.70 1009.58 1010.57 1011.57 1012.44 1013.10 1013.50 1013.63 1013.56 1013.36 1013.12 1012.96 1012.94 1013.10 1013.44 1013.94 1014.53 1015.16 1015.77 1016.35 1016.86 1017.32 1017.74 1018.17 1018.60 1019.04 1019.50 1019.95 1020.36 1020.72 1021.01 1021.24 1021.41 1021.55 1021.68 1021.83 1021.99
1007.38 1007.74 1008.04 1008.23 1008.29 1008.21 1008.04 1007.85 1007.72 1007.76 1008.02 1008.53 1009.28 1010.20 1011.21 1012.19 1013.05 1013.69 1014.09 1014.26 1014.23 1014.10 1013.95 1013.86 1013.91 1014.11 1014.47 1014.95 1015.50 1016.07 1016.61 1017.10 1017.53 1017.91 1018.26 1018.62 1019.00 1019.42 1019.85 1020.30 1020.71 1021.09 1021.39 1021.63 1021.81 1021.94 1022.05 1022.16 1022.29
1007.75 1007.96 1008.13 1008.23 1008.24 1008.17 1008.07 1007.99 1008.01 1008.20 1008.59 1009.20 1010.00 1010.94 1011.91 1012.84 1013.63 1014.23 1014.60 1014.77 1014.79 1014.73 1014.67 1014.69 1014.83 1015.11 1015.52 1016.01 1016.55 1017.07 1017.55 1017.96 1018.31 1018.60 1018.88 1019.17 1019.50 1019.87 1020.29 1020.72 1021.15 1021.53 1021.86 1022.11 1022.29 1022.42 1022.50 1022.57 1022.63
Thickness
5800 5810 5818 5815 5802 5796 5803 5833 5843 5840 5833 5841 5844 5839 5829 5817 5803 5787 5819 5833 5826 5814 5804 5797 5792 5788 5784 5781 5777 5774 5771 5768 5765 5763 5760 5759 5757 5755 5753 5751 5749 5748 5746 5745 5744 5744 5743 5743 5744
5798 5810 5810 5801 5785 5782 5802 5838 5842 5838 5841 5847 5845 5840 5830 5819 5824 5820 5824 5827 5822 5812 5803 5796 5789 5786 5782 5778 5775 5772 5769 5765 5763 5760 5758 5756 5754 5752 5750 5748 5746 5744 5743 5742 5741 5740 5740 5740 5741
5792 5803 5791 5787 5781 5783 5795 5832 5842 5846 5852 5847 5839 5839 5828 5818 5824 5823 5825 5827 5821 5811 5802 5793 5788 5784 5780 5776 5773 5770 5767 5764 5761 5758 5756 5754 5752 5749 5747 5745 5743 5741 5740 5738 5737 5737 5737 5737 5738
5788 5790 5785 5776 5778 5802 5816 5833 5845 5841 5845 5847 5841 5830 5828 5833 5832 5829 5829 5828 5820 5811 5801 5791 5786 5782 5778 5774 5771 5768 5765 5762 5759 5756 5754 5751 5749 5747 5744 5742 5740 5738 5737 5735 5734 5734 5734 5734 5735
5782 5774 5763 5763 5780 5809 5829 5844 5848 5839 5837 5838 5839 5824 5817 5834 5837 5832 5829 5827 5819 5811 5801 5790 5785 5781 5777 5773 5769 5766 5763 5760 5758 5755 5752 5749 5746 5744 5742 5740 5738 5735 5734 5732 5731 5731 5730 5731 5731
5768 5768 5751 5756 5780 5811 5833 5848 5848 5841 5841 5839 5836 5826 5817 5834 5831 5828 5830 5827 5823 5812 5801 5790 5784 5779 5775 5772 5768 5765 5762 5759 5756 5753 5750 5746 5744 5742 5740 5738 5736 5733 5731 5730 5728 5728 5727 5728 5729
5760 5758 5754 5765 5781 5803 5830 5852 5847 5840 5836 5834 5837 5824 5820 5829 5831 5833 5830 5829 5824 5815 5802 5791 5784 5779 5775 5771 5767 5764 5760 5757 5753 5751 5748 5745 5742 5740 5738 5736 5734 5732 5730 5727 5726 5725 5725 5725 5726
5772 5761 5755 5765 5776 5794 5827 5845 5849 5842 5838 5845 5840 5824 5814 5824 5833 5834 5830 5828 5823 5815 5803 5795 5787 5781 5776 5771 5767 5762 5759 5755 5752 5749 5746 5743 5741 5738 5736 5734 5732 5730 5727 5725 5723 5722 5723 5723 5725
5775 5753 5751 5766 5780 5800 5828 5835 5846 5853 5844 5839 5835 5831 5829 5832 5834 5828 5824 5822 5818 5813 5805 5798 5792 5785 5780 5774 5768 5763 5758 5754 5751 5747 5744 5742 5740 5738 5735 5734 5730 5728 5725 5723 5721 5721 5721 5722 5723
5768 5752 5763 5783 5798 5812 5829 5833 5840 5840 5830 5827 5823 5827 5833 5832 5829 5823 5819 5816 5814 5810 5807 5802 5797 5790 5785 5780 5771 5765 5760 5755 5752 5749 5745 5742 5742 5740 5737 5733 5729 5726 5723 5721 5720 5719 5719 5720 5721
5769 5763 5778 5793 5808 5817 5824 5831 5841 5833 5824 5828 5821 5824 5831 5830 5827 5825 5823 5820 5817 5814 5811 5808 5802 5795 5791 5785 5774 5770 5765 5759 5754 5752 5747 5745 5743 5740 5736 5731 5727 5724 5721 5719 5718 5717 5718 5720 5722
5770 5776 5784 5792 5808 5811 5813 5824 5830 5831 5834 5848 5847 5843 5835 5830 5830 5829 5827 5824 5821 5816 5812 5812 5806 5799 5795 5789 5781 5776 5771 5764 5759 5754 5749 5746 5742 5738 5734 5729 5726 5723 5721 5720 5718 5718 5719 5720 5721
5769 5775 5787 5796 5802 5807 5809 5811 5817 5827 5844 5849 5847 5845 5838 5835 5835 5836 5834 5830 5825 5818 5814 5814 5809 5801 5795 5791 5785 5779 5774 5768 5763 5757 5749 5745 5741 5736 5732 5727 5723 5722 5720 5718 5717 5717 5718 5717 5715
5774 5779 5783 5791 5795 5799 5797 5803 5810 5820 5841 5842 5840 5835 5836 5837 5838 5836 5834 5828 5826 5821 5816 5815 5809 5802 5796 5790 5784 5779 5774 5768 5763 5756 5749 5744 5740 5735 5730 5724 5721 5718 5716 5713 5712 5713 5712 5710 5709
5777 5772 5776 5784 5790 5794 5793 5787 5804 5827 5839 5838 5839 5838 5838 5842 5841 5835 5832 5829 5828 5823 5818 5814 5808 5802 5795 5789 5783 5778 5773 5767 5761 5755 5750 5743 5738 5732 5726 5721 5716 5712 5709 5707 5706 5706 5705 5703 5702
5765 5758 5755 5777 5786 5792 5783 5775 5813 5835 5837 5836 5839 5841 5840 5843 5841 5832 5835 5832 5830 5827 5819 5813 5809 5801 5793 5788 5781 5776 5771 5766 5760 5755 5750 5744 5737 5731 5724 5718 5711 5706 5703 5700 5697 5697 5695 5693 5691
5746 5742 5750 5770 5789 5790 5784 5783 5817 5841 5838 5835 5838 5839 5837 5840 5842 5839 5839 5834 5831 5828 5820 5812 5807 5800 5792 5785 5778 5773 5768 5763 5757 5752 5747 5741 5734 5728 5722 5714 5706 5699 5695 5691 5689 5686 5685 5681 5679
5734 5745 5753 5765 5788 5788 5784 5792 5815 5837 5838 5835 5837 5838 5835 5834 5839 5845 5843 5838 5833 5827 5820 5812 5804 5798 5790 5782 5774 5768 5763 5757 5751 5746 5741 5736 5729 5724 5718 5709 5702 5695 5688 5681 5678 5674 5673 5670 5668
5746 5754 5760 5776 5798 5788 5784 5793 5808 5827 5830 5832 5834 5833 5833 5832 5839 5844 5842 5839 5831 5824 5816 5809 5800 5793 5786 5777 5769 5762 5756 5751 5745 5740 5735 5731 5726 5721 5714 5705 5697 5690 5683 5676 5671 5666 5663 5660 5660
5737 5741 5759 5783 5802 5792 5783 5788 5807 5820 5823 5829 5830 5830 5827 5826 5829 5830 5831 5829 5824 5819 5813 5805 5797 5789 5782 5774 5768 5760 5752 5746 5741 5734 5728 5723 5719 5713 5707 5700 5692 5685 5678 5672 5667 5662 5658 5654 5652
5733 5737 5753 5772 5792 5789 5777 5771 5790 5810 5824 5826 5826 5825 5822 5818 5815 5818 5819 5820 5819 5814 5809 5804 5795 5786 5778 5769 5760 5751 5743 5737 5731 5724 5719 5715 5710 5705 5700 5694 5687 5680 5674 5668 5663 5659 5654 5649 5646
5723 5743 5751 5760 5767 5763 5760 5743 5772 5793 5805 5813 5815 5814 5807 5805 5808 5808 5809 5808 5810 5810 5808 5801 5792 5782 5772 5763 5754 5745 5737 5730 5725 5718 5712 5707 5702 5697 5692 5687 5680 5674 5669 5663 5658 5652 5647 5644 5639
5728 5745 5745 5746 5747 5749 5757 5744 5763 5790 5789 5799 5800 5794 5790 5790 5790 5789 5791 5793 5797 5801 5801 5794 5785 5773 5764 5756 5748 5740 5732 5725 5717 5710 5703 5696 5691 5687 5682 5677 5672 5666 5660 5655 5650 5644 5640 5637 5633
5735 5735 5738 5739 5735 5719 5739 5738 5749 5781 5790 5791 5779 5771 5771 5773 5772 5772 5774 5777 5779 5782 5782 5778 5769 5760 5753 5745 5738 5731 5722 5715 5707 5700 5692 5686 5680 5675 5671 5667 5662 5657 5651 5646 5641 5636 5632 5628 5624
5725 5712 5703 5702 5703 5713 5743 5738 5751 5771 5778 5773 5760 5754 5754 5755 5754 5753 5752 5752 5754 5757 5757 5755 5750 5742 5737 5731 5724 5719 5712 5705 5697 5689 5681 5676 5670 5664 5660 5656 5651 5646 5641 5636 5631 5627 5622 5618 5614
5716 5713 5698 5695 5706 5724 5744 5741 5756 5764 5761 5757 5751 5745 5742 5739 5736 5733 5732 5732 5733 5734 5735 5733 5730 5724 5720 5715 5710 5705 5700 5693 5685 5678 5672 5666 5660 5654 5649 5644 5640 5635 5630 5625 5621 5616 5611 5606 5601
5712 5712 5724 5713 5717 5718 5742 5754 5743 5750 5744 5741 5737 5731 5726 5722 5719 5716 5714 5714 5714 5715 5714 5714 5712 5708 5704 5700 5696 5690 5685 5679 5672 5666 5660 5653 5647 5641 5636 5632 5627 5622 5617 5612 5608 5603 5598 5593 5589
5722 5721 5713 5703 5694 5698 5728 5740 5732 5730 5727 5725 5721 5715 5710 5706 5703 5700 5698 5697 5697 5698 5698 5697 5696 5693 5689 5686 5682 5676 5670 5664 5658 5653 5645 5640 5634 5629 5624 5619 5614 5609 5604 5599 5595 5590 5585 5580 5575
5713 5711 5711 5713 5714 5703 5707 5717 5735 5729 5720 5711 5704 5699 5695 5690 5687 5685 5683 5683 5683 5683 5683 5681 5680 5677 5673 5669 5665 5660 5655 5650 5644 5638 5631 5626 5620 5615 5610 5605 5600 5595 5590 5585 5580 5576 5571 5566 5560
5724 5716 5710 5695 5700 5712 5711 5701 5728 5721 5709 5700 5689 5683 5679 5676 5673 5671 5670 5670 5669 5668 5667 5665 5663 5660 5656 5652 5648 5643 5638 5633 5627 5621 5616 5610 5605 5600 5595 5590 5585 5580 5575 5570 5565 5560 5555 5550 5544